Weather History for Naples, Italy

Change the Weather History Date:

Thursday, August 1, 2013

  Actual Average Record
Temperature  
Mean Temperature 83 °F -  
Max Temperature 91 °F 85 °F 95 °F (2001)
Min Temperature 75 °F 64 °F 62 °F (2003)
Cooling Degree Days 18    
Growing Degree Days 33 (Base 50)    
Moisture  
Dew Point 53 °F    
Average Humidity 34    
Maximum Humidity 50    
Minimum Humidity 24    
Precipitation  
Precipitation 0.00 in 0.06 in - ()
Sea Level Pressure  
Sea Level Pressure 29.96 in    
Wind  
Wind Speed 8 mph ()    
Max Wind Speed 18 mph    
Max Gust Speed -    
Averages and records for this station are not official NWS values.
T = Trace of Precipitation, MM = Missing Value Source: Averaged Metar Reports

Daily Weather History Graph

Daily Weather History Graph

Search for Another Location

Airport:

Trip Planner

Search our weather history database for the weather conditions in past years. The results will help you decide how hot, cold, wet, or windy it might be!

Date:

Astronomy

Aug. 01, 2013 Rise Set
Actual Time 5:59 AM CEST 8:18 PM CEST
Civil Twilight 5:28 AM CEST 8:49 PM CEST
Nautical Twilight 4:50 AM CEST 9:27 PM CEST
Astronomical Twilight 4:07 AM CEST 10:09 PM CEST
Moon 1:22 AM CEST (8/1) 4:12 PM CEST (8/1)
Length of Visible Light 15h 21m
Length of Day
14h 19m
Waning Crescent, 25% of the Moon is Illuminated
Aug 1
Waning Crescent
Aug 6
New
Aug 14
First Quarter
Aug 21
Full
Aug 28
Last Quarter

Hourly Weather History & Observations

Time (CEST) Temp. Heat Index Dew Point Humidity Pressure Visibility Wind Dir Wind Speed Gust Speed Precip Events Conditions
12:50 AM 78.8 °F - 48.2 °F 34% 29.95 in - North 4.6 mph - N/A   Clear
1:20 AM 78.8 °F - 50.0 °F 36% 29.95 in - North 4.6 mph - N/A   Clear
1:50 AM 78.8 °F - 50.0 °F 36% 29.95 in - North 6.9 mph - N/A   Clear
2:20 AM 78.8 °F - 50.0 °F 36% 29.95 in - NNE 5.8 mph - N/A   Clear
2:50 AM 77.0 °F - 50.0 °F 39% 29.95 in - North 5.8 mph - N/A   Clear
3:20 AM 77.0 °F - 50.0 °F 39% 29.95 in - North 8.1 mph - N/A   Clear
3:50 AM 77.0 °F - 50.0 °F 39% 29.95 in - North 6.9 mph - N/A   Clear
4:20 AM 77.0 °F - 51.8 °F 41% 29.95 in - North 5.8 mph - N/A   Clear
4:50 AM 77.0 °F - 51.8 °F 41% 29.95 in - North 5.8 mph - N/A   Clear
5:20 AM 77.0 °F - 53.6 °F 44% 29.95 in - NNW 5.8 mph - N/A   Clear
6:20 AM 75.2 °F - 55.4 °F 50% 29.95 in - NNE 8.1 mph - N/A   Clear
6:50 AM 77.0 °F - 55.4 °F 47% 29.95 in - NNE 8.1 mph - N/A   Clear
7:20 AM 78.8 °F - 57.2 °F 47% 29.95 in - NNE 6.9 mph - N/A   Clear
7:50 AM 80.6 °F 80.5 °F 55.4 °F 42% 29.95 in - NNE 9.2 mph - N/A   Clear
8:20 AM 82.4 °F 82.0 °F 57.2 °F 42% 29.98 in - ENE 9.2 mph - N/A   Clear
8:50 AM 82.4 °F 81.7 °F 55.4 °F 39% 29.98 in - ENE 11.5 mph - N/A   Clear
9:20 AM 82.4 °F 81.7 °F 55.4 °F 39% 29.98 in - NE 13.8 mph - N/A   Clear
9:50 AM 84.2 °F 83.0 °F 55.4 °F 37% 29.98 in - ENE 12.7 mph - N/A   Clear
10:20 AM 86.0 °F 84.5 °F 55.4 °F 35% 29.98 in - NE 17.3 mph - N/A   Clear
10:50 AM 86.0 °F 84.9 °F 57.2 °F 37% 29.98 in - NE 18.4 mph - N/A   Clear
11:20 AM 87.8 °F 86.1 °F 55.4 °F 33% 29.98 in - NE 15.0 mph - N/A   Clear
11:50 AM 87.8 °F 85.7 °F 53.6 °F 31% 29.98 in - NE 15.0 mph - N/A   Clear
12:20 PM 89.6 °F 87.3 °F 53.6 °F 29% 29.98 in - NE 16.1 mph - N/A   Clear
12:50 PM 89.6 °F 87.3 °F 53.6 °F 29% 29.98 in - NE 15.0 mph - N/A   Clear
1:20 PM 91.4 °F 89.4 °F 55.4 °F 29% 29.95 in - NE 10.4 mph - N/A   Clear
1:50 PM 91.4 °F 89.1 °F 53.6 °F 28% 29.95 in - ENE 12.7 mph - N/A   Clear
2:20 PM 91.4 °F 89.1 °F 53.6 °F 28% 29.95 in - ENE 12.7 mph - N/A   Clear
2:50 PM 91.4 °F - 51.8 °F 26% 29.95 in - ENE 12.7 mph - N/A   Clear
3:20 PM 91.4 °F 89.1 °F 53.6 °F 28% 29.95 in - NE 12.7 mph - N/A   Clear
3:50 PM 91.4 °F 89.1 °F 53.6 °F 28% 29.95 in - NE 13.8 mph - N/A   Clear
4:20 PM 91.4 °F 89.1 °F 53.6 °F 28% 29.95 in - ENE 16.1 mph - N/A   Clear
4:50 PM 91.4 °F - 51.8 °F 26% 29.95 in - ENE 11.5 mph - N/A   Clear
5:20 PM 91.4 °F - 50.0 °F 24% 29.95 in - ENE 13.8 mph - N/A   Clear
5:50 PM 91.4 °F - 51.8 °F 26% 29.95 in - ENE 11.5 mph - N/A   Clear
6:20 PM 91.4 °F 89.1 °F 53.6 °F 28% 29.95 in - ENE 13.8 mph - N/A   Clear
6:50 PM 89.6 °F - 51.8 °F 27% 29.95 in - ENE 11.5 mph - N/A   Clear
7:20 PM 89.6 °F - 51.8 °F 27% 29.95 in - ENE 11.5 mph - N/A   Clear
7:50 PM 87.8 °F - 51.8 °F 29% 29.95 in - ENE 8.1 mph - N/A   Clear
8:20 PM 86.0 °F - 51.8 °F 31% 29.98 in - NE 8.1 mph - N/A   Clear
9:20 PM 84.2 °F - 51.8 °F 33% 29.98 in - ENE 6.9 mph - N/A   Clear
9:50 PM 82.4 °F - 51.8 °F 35% 30.01 in - ENE 4.6 mph - N/A   Clear
10:20 PM 82.4 °F - 51.8 °F 35% 30.01 in - ENE 3.5 mph - N/A   Clear
10:50 PM 82.4 °F - 51.8 °F 35% 30.01 in - ENE 4.6 mph - N/A   Clear
11:20 PM 80.6 °F 80.3 °F 53.6 °F 39% 30.01 in - ENE 5.8 mph - N/A   Clear
11:50 PM 80.6 °F 80.3 °F 53.6 °F 39% 30.01 in - East 6.9 mph - N/A   Clear